Regional Weather Roundup
Issued by NWS

Home | Current Version | Previous Version | Text Only | Print | Product List | Glossary On
Versions: 1 2 3 4 5 6 7 8 9 10 11 12 13 14 15 16 17 18 19 20 21 22 23 24 25 26 27
000
ASUS42 KFFC 312103
RWRGA
WEATHER ROUNDUP FOR GEORGIA
NATIONAL WEATHER SERVICE PEACHTREE CITY GA
500 PM EDT TUE MAY 31 2016

NOTE: "FAIR" INDICATES FEW OR NO CLOUDS BELOW 12,000 FEET WITH NO
SIGNIFICANT WEATHER AND/OR OBSTRUCTIONS TO VISIBILITY.

* = USE WITH CAUTION. THE STATIONS MARKED WITH AN ASTERISK MAY NOT
REPORT WEATHER SUCH AS PRECIPITATION, FOG, OR THUNDER AND ARE NOT
QUALITY CONTROLLED BY NWS.

THE REMARK "TC" DENOTES TEMPERATURE READING IN DEGREES CELSIUS.

GAZ001>058-312200-
NORTH GEORGIA

CITY           SKY/WX    TMP DP  RH WIND       PRES   REMARKS
ATLANTA        LGT RAIN  89  58  34 SW3       29.91F
ATHENS         MOSUNNY   89  64  43 VRB5      29.90F HX  90
CHAMBLEE       PTSUNNY   93  50  23 VRB5      29.90F HX  90
PEACHTREE CITY MOSUNNY   90  61  37 VRB5      29.90F HX  90
ROME           MOSUNNY   89  58  34 NW8       29.89F
WEST ATLANTA   MOSUNNY   92  58  31 VRB5      29.89F HX  91
GAINESVILLE    SUNNY     88  55  32 SW6       29.95F
CARTERSVILLE   SUNNY     92  57  30 N9        29.90F HX  90


CITY           SKY/WX    TMP DP  RH WIND       PRES   REMARKS
DALTON*        SUNNY     90  55  31 W5        29.91F
LAWRENCEVILLE* MOSUNNY   91  64  40 S5        29.93F HX  93
KENNESAW*      MOSUNNY   90  55  31 W7        29.85F
CANTON*        SUNNY     90  43  19 CALM      29.94F
BLAIRSVILLE*     N/A    N/A N/A N/A MISG      29.97F
$$

GAZ059>098-102>109-312200-
CENTRAL GEORGIA

CITY           SKY/WX    TMP DP  RH WIND       PRES   REMARKS
AUGUSTA-BUSH   SUNNY     87  66  49 CALM      29.88F
AUGUSTA-DANIEL SUNNY     88  66  48 SE3       29.90F HX  90
COLUMBUS       PTSUNNY   94  59  31 E7        29.86F HX  93
MACON          MOSUNNY   90  63  40 S5        29.87F HX  91


CITY           SKY/WX    TMP DP  RH WIND       PRES   REMARKS
LAGRANGE*      MOSUNNY   94  65  37 NW5       29.88F HX  96
SYLVANIA*      SUNNY     90  69  50 CALM      29.89F HX  94
MILLEDGEVILLE* MOSUNNY   91  59  33 CALM      29.88F HX  90
$$

GAZ099>101-110>166-312200-
SOUTH GEORGIA

CITY           SKY/WX    TMP DP  RH WIND       PRES   REMARKS
SAVANNAH       PTSUNNY   86  73  65 SE8       29.88F HX  93
VALDOSTA       PTSUNNY   85  65  51 VRB5      29.87F
ALMA           CLOUDY    91  64  40 N12G20    29.87F HX  92
ST SIMONS      MOSUNNY   80  73  79 NE7       29.91S THUNDER
ALBANY         SUNNY     97  56  25 W8        29.87F HX  95
BRUNSWICK      TSTM      82  66  57 E7        29.91F


CITY           SKY/WX    TMP DP  RH WIND       PRES   REMARKS
BAINBRIDGE*    MOSUNNY   97  54  23 W5        29.87F HX  94
MOULTRIE*      MOSUNNY   91  61  35 SW10G17   29.89F HX  91
VIDALIA*       PTSUNNY   91  64  40 NE6       29.87F HX  93
WAYCROSS*      CLOUDY    92  63  38 N7        29.85F HX  92
DOUGLAS*       MOSUNNY   97  55  24 W8        29.87F HX  95
$$




USA.gov is the U.S. government's official web portal to all federal, state and local government web resources and services.